Tracking 19817 objects as of 19-Aug-2019
HD Live streaming from Space Station
objects crossing your sky now

FENGYUN 1C DEB

Track FENGYUN 1C DEB now!
10-day predictions


NORAD ID: 30022
Int'l Code: 1999-025MX
Perigee: 775.2 km
Apogee: 874.4 km
Inclination: 98.9 °
Period: 101.2 minutes
Semi major axis: 7195 km
RCS: 0.0783 m2 (small)
Launch date: May 10, 1999
Source: People's Republic of China (PRC)
Launch site: Taiyaun Space Center, China (TSC)

Note: This is SATELLITE DEBRIS
aabbcc
Your satellite tracking list
Your tracking list is empty




NASA's NSSDC Master Catalog

Two Line Element Set (TLE):
1 30022U 99025MX  19230.95827420 -.00000013 +00000-0 +14147-4 0  9990
2 30022 098.9035 349.5779 0068899 042.1244 072.4263 14.22281299653811
Source of the keplerian elements: AFSPC